This is the latest recevied weather packets stored in our database for station/object KK4WXG. If no packets are shown the sender has not sent any weather packets the latest 10 day(s).
| Time | Temp. | Humidity | Pressure | Rain* | Wind** | Luminosity | Snow |
|---|---|---|---|---|---|---|---|
| 1778002169 | 26.67° C | 36% | 1009.9 hPa | 0 mm | - | 1011 W/m² | - |
| 1778001868 | 26.67° C | 37% | 1010.1 hPa | 0 mm | - | 991 W/m² | - |
| 1778001566 | 26.67° C | 37% | 1009.7 hPa | 0 mm | - | 984 W/m² | - |
| 1778001264 | 26.11° C | 37% | 1010.1 hPa | 0 mm | - | 992 W/m² | - |
| 1778000960 | 26.11° C | 39% | 1010.1 hPa | 0 mm | - | 984 W/m² | - |
| 1778000657 | 26.67° C | 39% | 1010.1 hPa | 0 mm | - | 991 W/m² | - |
| 1778000352 | 26.11° C | 39% | 1010.3 hPa | 0 mm | - | 989 W/m² | - |
| 1778000048 | 26.67° C | 41% | 1010.2 hPa | 0 mm | - | 989 W/m² | - |
| 1777999744 | 26.11° C | 38% | 1010.3 hPa | 0 mm | - | 984 W/m² | - |
| 1777999441 | 26.11° C | 37% | 1010.4 hPa | 0 mm | - | 981 W/m² | - |
| 1777999139 | 26.11° C | 43% | 1010.7 hPa | 0 mm | - | 976 W/m² | - |
| 1777998838 | 26.11° C | 39% | 1010.7 hPa | 0 mm | - | 964 W/m² | - |
| 1777998536 | 26.67° C | 42% | 1010.4 hPa | 0 mm | - | 978 W/m² | - |
| 1777998231 | 26.11° C | 39% | 1010.7 hPa | 0 mm | - | 972 W/m² | - |
| 1777997929 | 26.11° C | 41% | 1010.8 hPa | 0 mm | - | 964 W/m² | - |
| 1777997626 | 25.56° C | 43% | 1010.6 hPa | 0 mm | - | 960 W/m² | - |
| 1777997323 | 25.56° C | 38% | 1011 hPa | 0 mm | - | 958 W/m² | - |
| 1777997021 | 26.11° C | 39% | 1010.8 hPa | 0 mm | - | 950 W/m² | - |
| 1777996717 | 25.56° C | 40% | 1011.1 hPa | 0 mm | - | 946 W/m² | - |
| 1777996413 | 25.56° C | 39% | 1011.1 hPa | 0 mm | - | 939 W/m² | - |
| 1777996110 | 25.56° C | 41% | 1011.3 hPa | 0 mm | - | 934 W/m² | - |
| 1777995806 | 25.56° C | 39% | 1011.3 hPa | 0 mm | - | 922 W/m² | - |
| 1777995503 | 25.56° C | 41% | 1011.1 hPa | 0 mm | - | 917 W/m² | - |
| 1777995200 | 25.56° C | 42% | 1011.1 hPa | 0 mm | - | 907 W/m² | - |
| 1777994897 | 25.56° C | 40% | 1011.2 hPa | 0 mm | - | 899 W/m² | - |
* Rain latest hour (hover to see other rain measurements)
** Current wind speed in m/s (hover to see current wind gust speed)